Skip Page Navigation
NASA JPL Caltech
NASA Logo - Jet Propulsion Laboratory + View the NASA Portal
+ Near-Earth Object (NEO) Program
Search JPL
JPL Home Earth Solar System Stars & Galaxies Technology
JPL Solar System Dynamics
BODIES ORBITS EPHEMERIDES TOOLS PHYSICAL DATA DISCOVERY FAQ SITE MAP
JPL Small-Body Database Browser
Search: [ help ]  
14502 Morden (1995 WB22)
Classification: Main-belt Asteroid          SPK-ID: 2014502
Ephemeris | Orbit Diagram | Orbital Elements | Physical Parameters | Discovery Circumstances ]

[ hide orbit diagram ]
Orbit Diagram
Note: Make sure you have Java enabled on your browser to see the applet. This applet is provided as a 3D orbit visualization tool. The applet was implemented using 2-body methods, and hence should not be used for determining accurate long-term trajectories (over several years or decades) or planetary encounter circumstances. For accurate long-term ephemerides, please instead use our Horizons system.
Orbit Viewer

Additional Notes: the orbits shown in the applet are color coded. The planets are white lines, and the asteroid/comet is a blue line. The bright white line indicates the portion of the orbit that is above the ecliptic plane, and the darker portion is below the ecliptic plane. Likewise for the asteroid/comet orbit, the light blue indicates the portion above the ecliptic plane, and the dark blue the portion below the ecliptic plane.

Orbit Viewer applet originally written and kindly provided by Osamu Ajiki (AstroArts), and further modified by Ron Baalke (JPL).


Orbital Elements at Epoch 2456400.5 (2013-Apr-18.0) TDB
Reference: JPL 1 (heliocentric ecliptic J2000)
 Element Value Uncertainty (1-sigma)   Units 
e .09012262995054235 6.9262e-08  
a 2.232220958765046 1.7405e-08 AU
q 2.031047335330419 1.5375e-07 AU
i 5.148645350632462 7.4874e-06 deg
node 95.39740862079881 8.0106e-05 deg
peri 39.53872720131945 9.9122e-05 deg
M 11.53192709231028 5.1957e-05 deg
tp 2456361.478533555291
(2013-Mar-09.97853356)
0.00017592 JED
period 1218.159619606223
3.34
1.4248e-05
3.901e-08
d
yr
n .2955277733769998 3.4565e-09 deg/d
Q 2.433394582199673 1.8974e-08 AU
  Orbit Determination Parameters
   # obs. used (total)      476  
   data-arc span      6366 days (17.43 yr)  
   first obs. used      1995-11-17  
   last obs. used      2013-04-22  
   planetary ephem.      DE405  
   SB-pert. ephem.      SB405-CPV-2  
   condition code      0  
   fit RMS      .60264  
   data source      ORB  
   producer      Otto Matic  
   solution date      2013-Apr-29 13:56:05  

Additional Information
 Earth MOID = 1.04801 AU 
 T_jup = 3.630 
[ show covariance matrix ]

Ephemeris | Orbit Diagram | Orbital Elements | Physical Parameters | Discovery Circumstances ]

Physical Parameter Table
Parameter Symbol Value Units Sigma Reference Notes
absolute magnitude H 15.5 mag n/a PDS3 (MPC 39848)  

14502 Morden           Discovered 1995 Nov. 17 by Spacewatch at Kitt Peak.
James C. Morden (1869-1944) was an historian, educator and author in Stamford Township (now Niagara Falls), Ontario. Morden also had an active local political career as a member of Stamford Township Council, and a public school was named for him in 1952.
NOTE: some special characters may not display properly (any characters within {} are an attempt to place the proper accent above a character)
Reference: 20030614/MPCPages.arcLast Updated: 2005-04-26

Alternate Designations
 1995 WB22 = 1997 LG15 
Ephemeris | Orbit Diagram | Orbital Elements | Physical Parameters | Discovery Circumstances ]
ABOUT SSD CREDITS/AWARDS PRIVACY/COPYRIGHT GLOSSARY LINKS
FirstGov 2013-May-21 07:00 UT
(server date/time)  
NASA Home Page
Site Manager:   Donald K. Yeomans
Webmaster  Alan B. Chamberlin